Regional Weather Roundup
Issued by NWS

Home | Current Version | Previous Version | Graphics & Text | Print | Product List | Glossary On
Versions: 1 2 3 4 5 6 7 8 9 10 11 12 13 14 15 16 17 18 19 20 21 22 23 24 25 26 27 28 29 30 31 32 33 34 35 36 37 38 39 40 41 42 43 44 45 46 47 48 49 50
000
ASUS43 KIND 051609
RWRIN

WEATHER ROUNDUP FOR INDIANA
NATIONAL WEATHER SERVICE INDIANAPOLIS IN
1100 AM EST THU MAR 05 2015

NOTE: "FAIR" INDICATES FEW OR NO CLOUDS BELOW 12,000 FEET WITH NO
SIGNIFICANT WEATHER AND/OR OBSTRUCTIONS TO VISIBILITY.

* - STATION DOES NOT REPORT WEATHER SUCH AS PRECIPITATION OR FOG.

+ - STATION NOT QUALITY CONTROLLED BY THE NATIONAL WEATHER SERVICE.
    USE DATA WITH CAUTION...ESPECIALLY DEWPOINT AND RELATIVE
    HUMIDITY OBSERVATIONS.

INZ001>003-010>013-019-020-051700-
NORTHWEST INDIANA

CITY           SKY/WX    TMP DP  RH WIND       PRES   REMARKS
GARY /AIRPORT/ MOSUNNY   18   0  45 NW14      30.45S WCI   4
KNOX *+          N/A     18   0  45 W6        30.42R WCI   9
LA PORTE +     PTSUNNY   21   8  56 NW8       30.41S WCI  11
MICHIGAN CITY+ PTSUNNY   19   3  49 NW9       30.43R WCI   9
MONTICELLO +   SUNNY     14   7  72 W7        30.43R WCI   4
RENSSELAER +   SUNNY     18   9  68 NW6       30.44R WCI   9
VALPARAISO     LGT SNOW  17   9  70 NW12      30.42R WCI   4

$$

LMZ046-743>745-051700-
SOUTHERN LAKE MICHIGAN

STATION/POSITION TIME  TEMP WIND        PRES
                       AIR  DIR/SP/G
                 (UTC) (F)  (DEG/KT/KT) (MB)
MICHIGAN CITY    1600   18  280/ 15/ 19   N/A

$$

INZ004-005-014>016-021>024-051700-
NORTH CENTRAL INDIANA

CITY           SKY/WX    TMP DP  RH WIND       PRES   REMARKS
ELKHART        MOSUNNY   16  -2  45 CALM      30.42S
GOSHEN         MOSUNNY   15   2  56 CALM      30.40S
LOGANSPORT +   CLOUDY    18   3  53 CALM      30.43R
PERU/GRISSOM   PTSUNNY   18   3  53 NW6       30.40R WCI   9
ROCHESTER +    PTSUNNY   23   7  50 N6        30.42R WCI  16
SOUTH BEND     PTSUNNY   19   4  51 CALM      30.41S
WARSAW +       FAIR      18   1  49 CALM      30.40S

$$

INZ006>009-017-018-025>027-051700-
NORTHEAST INDIANA

CITY           SKY/WX    TMP DP  RH WIND       PRES   REMARKS
ANGOLA *+      SUNNY     16   0  48 NW5       30.37S WCI   9
AUBURN +       MOSUNNY   18   1  49 CALM      30.39S
FORT WAYNE     PTSUNNY   18   1  47 CALM      30.40R

$$

INZ028-029-035-036-043>045-051>053-051700-
WEST CENTRAL INDIANA

CITY           SKY/WX    TMP DP  RH WIND       PRES   REMARKS
CRAWFORDSVL +  SUNNY     13  -1  55 NW8       30.42S WCI   1
GREENCASTLE +  MOSUNNY   18   1  49 N9        30.42R WCI   6
LAFAYETTE      SUNNY     15   4  61 VRB5      30.45R WCI   8
TERRE HAUTE    SUNNY     17   4  56 N9        30.45R WCI   6

$$

INZ030>032-037>040-046>048-054>057-064-065-051700-
CENTRAL INDIANA

CITY           SKY/WX    TMP DP  RH WIND       PRES   REMARKS
CP ATTERBURY + CLOUDY    23  10  58 N7        30.39R WCI  15
COLUMBUS       MOSUNNY   19   7  58 N6        30.40R WCI  11
FRANKFORT +    SUNNY     18   7  62 NW3       30.43R
GREENWOOD *+   PTSUNNY   19   3  49 N7        30.39R WCI  10
INDIANAPOLIS   MOSUNNY   20   7  57 N7        30.38S WCI  11
-EAGLE CREEK   MOSUNNY   19   7  59 NW8       30.39R WCI   9
KOKOMO *+      MOSUNNY   18   5  57 NE3       30.41R
MT COMFORT *+  PTSUNNY   21   1  42 N9        30.40R WCI  11
SHELBYVILLE    CLOUDY    22   8  55 NE7       30.38R WCI  13
ZIONSVILLE +   MOSUNNY   18   7  60 N7        30.40R WCI   9

$$

INZ033-034-041-042-049-050-058-059-051700-
EAST CENTRAL INDIANA

CITY           SKY/WX    TMP DP  RH WIND       PRES   REMARKS
MUNCIE         MOSUNNY   17   3  54 N8        30.38R WCI   7

$$

INZ060-061-067>069-081>083-085>088-051700-
SOUTHWEST INDIANA

CITY           SKY/WX    TMP DP  RH WIND       PRES   REMARKS
EVANSVILLE     MOSUNNY   21   6  52 N12       30.46R WCI   9
HUNTINGBURG *+ PTSUNNY   19   7  58 NW13      30.43R WCI   7

$$

INZ062-063-066-070>080-084-089>092-051700-
SOUTH CENTRAL AND SOUTHEAST INDIANA

CITY           SKY/WX    TMP DP  RH WIND       PRES   REMARKS
BEDFORD +      CLOUDY    21   9  58 N6        30.38S WCI  14
BLOOMINGTON    PTSUNNY   20   7  57 N7        30.39R WCI  11
NORTH VERNON + CLOUDY    21   7  53 N9        30.37R WCI  11
SEYMOUR +      CLOUDY    23  10  58 N8        30.39F WCI  14

$$




USA.gov is the U.S. government's official web portal to all federal, state and local government web resources and services.